Weather History for Cincinnati, OH

Change the Weather History Date:

Friday, April 12, 2013

  Actual Average Record
Temperature  
Mean Temperature 50 °F -  
Max Temperature 57 °F 66 °F 85 °F (1977)
Min Temperature 39 °F 42 °F 26 °F (1976)
Degree Days  
Heating Degree Days 14    
Moisture  
Dew Point 44 °F    
Average Humidity 80    
Maximum Humidity 100    
Minimum Humidity 52    
Precipitation  
Precipitation 0.02 in - - ()
Sea Level Pressure  
Sea Level Pressure 29.70 in    
Wind  
Wind Speed 9 mph (WSW)    
Max Wind Speed 18 mph    
Max Gust Speed 29 mph    
Visibility 8 miles    
Events Rain    
Averages and records for this station are not official NWS values.
T = Trace of Precipitation, MM = Missing Value Source: NWS Daily Summary

Daily Weather History Graph

Daily Weather History Graph

Search for Another Location

Airport:

Trip Planner

Search our weather history database for the weather conditions in past years. The results will help you decide how hot, cold, wet, or windy it might be!

Date:

Astronomy

Apr. 12, 2013 Rise Set
Actual Time 7:05 AM EDT 8:12 PM EDT
Civil Twilight 6:37 AM EDT 8:39 PM EDT
Nautical Twilight 6:04 AM EDT 9:12 PM EDT
Astronomical Twilight 5:30 AM EDT 9:47 PM EDT
Moon 8:15 AM EDT (4/12) 10:41 PM EDT (4/12)
Length of Visible Light 14h 02m
Length of Day
13h 07m
Waxing Crescent, 5% of the Moon is Illuminated
Apr 12
Waxing Crescent
Apr 18
First Quarter
Apr 25
Full
May 2
Last Quarter
May 9
New

Hourly Weather History & Observations

Time (EDT) Temp. Windchill Dew Point Humidity Pressure Visibility Wind Dir Wind Speed Gust Speed Precip Events Conditions
12:06 AM 59.0 °F - 57.2 °F 94% 29.55 in 10.0 mi Calm Calm - N/A   Overcast
12:53 AM 57.9 °F - 57.9 °F 100% 29.54 in 10.0 mi SSW 4.6 mph - N/A   Overcast
1:16 AM 57.2 °F - 57.2 °F 100% 29.55 in 2.5 mi SSW 4.6 mph - 0.00 in Rain Light Rain
1:30 AM 57.2 °F - 57.2 °F 100% 29.54 in 2.5 mi South 3.5 mph - 0.00 in Rain Light Rain
1:40 AM 57.2 °F - 57.2 °F 100% 29.55 in 4.0 mi SSW 6.9 mph - 0.00 in Rain Light Rain
1:53 AM 57.9 °F - 57.9 °F 100% 29.54 in 4.0 mi SSW 6.9 mph - 0.00 in Rain Light Rain
2:00 AM 57.2 °F - 57.2 °F 100% 29.55 in 2.5 mi SSW 9.2 mph - 0.00 in Rain Light Rain
2:07 AM 57.2 °F - 57.2 °F 100% 29.54 in 3.0 mi SSW 6.9 mph - 0.00 in Rain Light Rain
2:19 AM 57.2 °F - 55.4 °F 94% 29.56 in 4.0 mi West 18.4 mph 28.8 mph 0.01 in Rain Rain
2:23 AM 55.4 °F - 55.4 °F 100% 29.57 in 4.0 mi West 13.8 mph 28.8 mph 0.01 in Rain Light Rain
2:30 AM 55.4 °F - 53.6 °F 94% 29.56 in 8.0 mi West 13.8 mph 18.4 mph 0.01 in Rain Light Rain
2:33 AM 55.4 °F - 53.6 °F 94% 29.56 in 10.0 mi West 11.5 mph 18.4 mph 0.01 in Rain Light Rain
2:45 AM 55.4 °F - 53.6 °F 94% 29.56 in 10.0 mi West 12.7 mph - 0.01 in Rain Light Rain
2:53 AM 55.0 °F - 53.1 °F 93% 29.56 in 10.0 mi West 11.5 mph - 0.01 in   Overcast
3:40 AM 53.6 °F - 51.8 °F 94% 29.57 in 6.0 mi WNW 3.5 mph - 0.00 in Rain Light Rain
3:53 AM 54.0 °F - 52.0 °F 93% 29.56 in 8.0 mi NNW 5.8 mph - 0.00 in Rain Light Rain
4:53 AM 48.9 °F - 46.9 °F 93% 29.61 in 10.0 mi West 13.8 mph 21.9 mph 0.01 in   Overcast
5:16 AM 48.2 °F - 44.6 °F 87% 29.64 in 10.0 mi West 8.1 mph 19.6 mph N/A   Overcast
5:38 AM 46.4 °F 40.1 °F 44.6 °F 93% 29.65 in 10.0 mi West 15.0 mph 23.0 mph N/A   Overcast
5:53 AM 46.9 °F - 44.1 °F 90% 29.65 in 10.0 mi West 13.8 mph 19.6 mph N/A   Overcast
6:50 AM 44.6 °F 39.2 °F 41.0 °F 87% 29.70 in 10.0 mi West 10.4 mph - 0.00 in   Overcast
6:53 AM 45.0 °F 39.7 °F 42.1 °F 90% 29.70 in 10.0 mi West 10.4 mph - 0.00 in   Overcast
7:53 AM 44.1 °F 37.7 °F 37.0 °F 76% 29.73 in 10.0 mi West 12.7 mph 19.6 mph N/A   Overcast
8:53 AM 42.1 °F 36.6 °F 35.1 °F 76% 29.76 in 10.0 mi WSW 9.2 mph 18.4 mph N/A   Overcast
9:53 AM 42.1 °F 36.1 °F 34.0 °F 73% 29.78 in 10.0 mi SW 10.4 mph 18.4 mph N/A   Overcast
10:37 AM 42.8 °F 35.8 °F 35.6 °F 76% 29.79 in 10.0 mi SW 13.8 mph - N/A   Overcast
10:53 AM 42.1 °F 34.2 °F 34.0 °F 73% 29.80 in 10.0 mi SW 16.1 mph - N/A   Overcast
11:30 AM 44.6 °F 37.2 °F 32.0 °F 61% 29.81 in 10.0 mi WSW 17.3 mph 21.9 mph N/A   Overcast
11:53 AM 46.0 °F 39.9 °F 32.0 °F 58% 29.81 in 10.0 mi SW 13.8 mph 19.6 mph N/A   Mostly Cloudy
12:53 PM 48.9 °F - 34.0 °F 56% 29.81 in 10.0 mi SW 18.4 mph 24.2 mph N/A   Mostly Cloudy
1:53 PM 51.1 °F - 34.0 °F 52% 29.79 in 10.0 mi SW 15.0 mph 24.2 mph N/A   Overcast
2:53 PM 50.0 °F - 34.0 °F 54% 29.80 in 10.0 mi SW 18.4 mph 26.5 mph N/A   Overcast
3:53 PM 50.0 °F - 35.1 °F 57% 29.81 in 10.0 mi SW 18.4 mph 28.8 mph N/A   Overcast
4:53 PM 50.0 °F - 34.0 °F 54% 29.83 in 10.0 mi West 18.4 mph 21.9 mph N/A   Overcast
5:53 PM 48.9 °F - 34.0 °F 56% 29.86 in 10.0 mi West 10.4 mph - N/A   Overcast
6:53 PM 48.9 °F - 35.1 °F 59% 29.88 in 10.0 mi West 8.1 mph - N/A   Overcast
7:53 PM 48.0 °F - 33.1 °F 56% 29.90 in 10.0 mi West 9.2 mph 16.1 mph N/A   Overcast
8:53 PM 46.9 °F - 30.9 °F 54% 29.92 in 10.0 mi West 11.5 mph 17.3 mph N/A   Overcast
9:53 PM 45.0 °F 41.2 °F 30.9 °F 58% 29.94 in 10.0 mi West 6.9 mph - N/A   Clear
10:53 PM 44.1 °F 40.8 °F 30.9 °F 60% 29.95 in 10.0 mi West 5.8 mph - N/A   Clear
11:53 PM 39.9 °F - 32.0 °F 73% 29.96 in 10.0 mi Calm Calm - N/A   Clear